Location: Karcze
(52.0945°N, 22.4786°E)
Time: 12:25:28
(UTC+00:00)

Tiangong - Pass Details

Date: 25 June 2021
Orbit: 373 x 386 km, 41.5° (Epoch: 31 July)

Event Time Altitude Azimuth Distance (km) Brightness Sun altitude
Exits shadow 00:58:12 10° 190° (S) 1,415 3.4 -8.1°
Reaches altitude 10° 00:58:26 10° 186° (S) 1,386 3.3 -8.1°
Maximum altitude 00:59:17 11° 170° (S) 1,339 3.4 -8.0°
Drops below altitude 10° 01:00:09 10° 154° (SSE) 1,390 3.6 -7.9°
Sets 01:03:25 0° 115° (ESE) 2,212 5.0 -7.7°
